Location: Ariel
(45.9570°N, 122.5700°W)
Time: 06:21:48
(UTC-07:00)

Vanguard 3 - Pass Details

Date: 26 August 2019
Orbit: 508 x 3263 km, 33.4° (Epoch: 22 September)

Event Time Altitude Azimuth Distance (km) Brightness Sun altitude
Rises 19:26:03 0° 254° (WSW) 4,494 12.3 4.9°
Reaches altitude 10° 19:30:18 10° 242° (WSW) 3,017 11.0 4.2°
Maximum altitude 19:35:27 22° 194° (SSW) 1,728 8.9 3.3°
Drops below altitude 10° 19:39:09 10° 142° (SE) 2,084 8.8 2.7°
Sets 19:41:30 0° 126° (SE) 2,807 9.3 2.3°
